Date String (YYYY-MM-DD hh:mm:ss) UTC,Instrument flags,absolute air pressure of the measurement (hPa),sample flow rate (lpm),inlet stack bypass flow (lpm),air temperature of the measurement (°C),ambient temperature measured by the external sensor (°C),aerosol sample conditioner tube jacket temperature (°C),OPC LED temperature (°C),internal box temperature (°C),relative humidity of the measurement (%),span deviation,mass concentration of particles derived from Lorenz-Mie calculation of OPC scattering (μg/m³),mass concentration of particles derived from Lorenz-Mie calculation of OPC scattering (μg/m³),mass concentration of particles derived from Lorenz-Mie calculation of OPC scattering (μg/m³)
DateTimeUTC,F1_M11,P_M11,Q1_M11,Q2_M11,T1_M11,T2_M11,T3_M11,T4_M11,T5_M11,U1_M11,ZSPAN_M11,X2_M11,X0_M11,X1_M11
2024-02-03 15:00:00,SystemResetWarning,0813.8,5.01,000.00,022.7,022.0,000.0,031.2,024.5,23.9,0000.0,0001.60,0002.74,0001.26
2024-02-03 15:01:00,SystemResetWarning,0813.8,5.01,000.00,022.7,022.0,000.0,031.2,024.5,23.9,0000.0,0001.50,0002.47,0001.22
2024-02-03 15:02:00,SystemResetWarning,0813.9,5.00,000.00,022.7,022.0,000.0,031.2,024.5,23.9,0000.0,0001.41,0002.23,0001.18
2024-02-03 15:03:00,SystemResetWarning,0813.9,5.00,000.00,022.7,022.0,000.0,031.2,024.5,23.9,0000.0,0001.35,0002.11,0001.14
2024-02-03 15:04:00,SystemResetWarning,0813.9,5.01,000.00,022.7,022.0,000.0,031.2,024.5,23.9,0000.0,0001.25,0001.86,0001.09
2024-02-03 15:05:00,SystemResetWarning,0813.9,5.00,000.00,022.7,022.0,000.0,031.2,024.5,24.0,0000.0,0001.21,0001.81,0001.04
2024-02-03 15:06:00,SystemResetWarning,0813.9,4.99,000.00,022.7,022.0,000.0,031.2,024.5,24.0,0000.0,0001.19,0001.87,0001.02
2024-02-03 15:07:00,SystemResetWarning,0813.9,4.99,000.00,022.7,022.0,000.0,031.2,024.5,24.0,0000.0,0001.22,0002.03,0001.01
2024-02-03 15:08:00,SystemResetWarning,0813.9,4.99,000.00,022.7,022.0,000.0,031.2,024.5,24.0,0000.0,0001.23,0002.11,0000.99
2024-02-03 15:09:00,SystemResetWarning,0813.9,5.00,000.00,022.7,022.0,000.0,031.2,024.5,24.0,0000.0,0001.27,0002.30,0000.99
2024-02-03 15:10:00,SystemResetWarning,0813.9,5.01,000.00,022.7,022.0,000.0,031.2,024.5,24.0,0000.0,0001.29,0002.21,0001.00
2024-02-03 15:11:00,SystemResetWarning,0813.9,5.01,000.00,022.7,021.9,000.0,031.2,024.5,24.0,0000.0,0001.31,0002.20,0001.00
2024-02-03 15:12:00,SystemResetWarning,0813.9,5.00,000.00,022.7,021.9,000.0,031.2,024.5,24.0,0000.0,0001.34,0002.31,0001.01
2024-02-03 15:13:00,SystemResetWarning,0813.9,4.99,000.00,022.7,021.9,000.0,031.2,024.5,24.0,0000.0,0001.36,0002.36,0001.03
2024-02-03 15:14:00,SystemResetWarning,0813.8,5.00,000.00,022.7,021.9,000.0,031.2,024.5,24.0,0000.0,0001.40,0002.42,0001.05
2024-02-03 15:15:00,SystemResetWarning,0813.8,4.99,000.00,022.7,021.9,000.0,031.1,024.4,24.0,0000.0,0001.44,0002.46,0001.09
2024-02-03 15:16:00,SystemResetWarning,0813.7,5.00,000.00,022.7,021.9,000.0,031.1,024.4,24.0,0000.0,0001.46,0002.50,0001.11
2024-02-03 15:17:00,SystemResetWarning,0813.7,5.00,000.00,022.7,021.9,000.0,031.1,024.5,24.0,0000.0,0001.51,0002.58,0001.13
2024-02-03 15:18:00,SystemResetWarning,0813.7,5.01,000.00,022.7,021.9,000.0,031.1,024.4,24.0,0000.0,0001.54,0002.52,0001.16
2024-02-03 15:19:00,SystemResetWarning,0813.7,5.00,000.00,022.6,021.9,000.0,031.1,024.4,24.0,0000.0,0001.57,0002.53,0001.18
2024-02-03 15:20:00,SystemResetWarning,0813.7,5.01,000.00,022.6,021.9,000.0,031.1,024.4,24.0,0000.0,0001.51,0002.30,0001.20
2024-02-03 15:21:00,SystemResetWarning,0813.7,5.00,000.00,022.6,021.9,000.0,031.1,024.4,23.9,0000.0,0001.50,0002.22,0001.20
2024-02-03 15:22:00,SystemResetWarning,0813.7,4.98,000.00,022.6,021.9,000.0,031.1,024.4,23.9,0000.0,0001.49,0002.17,0001.21
2024-02-03 15:23:00,SystemResetWarning,0813.7,5.00,000.00,022.6,021.8,000.0,031.1,024.4,23.9,0000.0,0001.52,0002.16,0001.23
2024-02-03 15:24:00,SystemResetWarning,0813.6,5.00,000.00,022.6,021.8,000.0,031.1,024.4,23.9,0000.0,0001.52,0002.14,0001.24
2024-02-03 15:25:00,SystemResetWarning,0813.7,5.01,000.00,022.6,021.8,000.0,031.1,024.4,23.8,0000.0,0001.55,0002.19,0001.26
2024-02-03 15:26:00,SystemResetWarning,0813.6,5.00,000.00,022.6,021.8,000.0,031.1,024.4,23.8,0000.0,0001.55,0002.18,0001.26
2024-02-03 15:27:00,SystemResetWarning,0813.7,5.01,000.00,022.6,021.8,000.0,031.1,024.4,23.8,0000.0,0001.54,0002.13,0001.26
2024-02-03 15:28:00,SystemResetWarning,0813.5,5.01,000.00,022.6,021.8,000.0,031.1,024.4,23.8,0000.0,0001.49,0001.98,0001.27
2024-02-03 15:29:00,SystemResetWarning,0813.6,5.00,000.00,022.6,021.8,000.0,031.1,024.4,23.8,0000.0,0001.47,0002.03,0001.26
2024-02-03 15:30:00,SystemResetWarning,0813.6,5.00,000.00,022.6,021.8,000.0,031.1,024.3,23.8,0000.0,0001.48,0002.08,0001.26
2024-02-03 15:31:00,SystemResetWarning,0813.6,5.00,000.00,022.6,021.8,000.0,031.0,024.3,23.9,0000.0,0001.53,0002.22,0001.27
2024-02-03 15:32:00,SystemResetWarning,0813.7,4.99,000.00,022.6,021.8,000.0,031.0,024.3,24.6,0000.0,0001.56,0002.31,0001.27
2024-02-03 15:33:00,SystemResetWarning,0813.6,5.00,000.00,022.6,021.8,000.0,031.0,024.3,25.4,0000.0,0001.59,0002.44,0001.27
2024-02-03 15:34:00,SystemResetWarning,0813.6,5.01,000.00,022.6,021.8,000.0,031.0,024.3,24.3,0000.0,0001.62,0002.55,0001.27
2024-02-03 15:35:00,SystemResetWarning,0813.5,5.01,000.00,022.5,021.8,000.0,031.0,024.3,24.1,0000.0,0001.68,0002.69,0001.29
2024-02-03 15:36:00,SystemResetWarning,0813.5,5.00,000.00,022.5,021.8,000.0,031.0,024.3,24.0,0000.0,0001.73,0003.00,0001.30
2024-02-03 15:37:00,SystemResetWarning,0813.5,4.98,000.00,022.5,021.8,000.0,031.0,024.3,24.0,0000.0,0001.77,0003.43,0001.29
2024-02-03 15:38:00,SystemResetWarning,0813.5,5.01,000.00,022.5,021.8,000.0,031.0,024.3,23.9,0000.0,0001.84,0004.38,0001.31
2024-02-03 15:39:00,SystemResetWarning,0813.5,5.02,000.00,022.5,021.8,000.0,031.0,024.3,23.8,0000.0,0001.93,0005.22,0001.31
2024-02-03 15:40:00,SystemResetWarning,0813.5,4.99,000.00,022.5,021.8,000.0,031.0,024.3,23.8,0000.0,0001.91,0005.15,0001.30
2024-02-03 15:41:00,SystemResetWarning,0813.6,4.99,000.00,022.5,021.8,000.0,031.0,024.3,23.8,0000.0,0001.83,0005.02,0001.27
2024-02-03 15:42:00,SystemResetWarning,0813.6,5.01,000.00,022.5,021.8,000.0,031.0,024.3,23.8,0000.0,0001.76,0004.87,0001.24
2024-02-03 15:43:00,SystemResetWarning,0813.6,5.01,000.00,022.5,021.7,000.0,031.0,024.2,23.8,0000.0,0001.71,0004.76,0001.21
2024-02-03 15:44:00,SystemResetWarning,0813.6,5.00,000.00,022.5,021.7,000.0,031.0,024.2,23.8,0000.0,0001.63,0004.59,0001.18
2024-02-03 15:45:00,SystemResetWarning,0813.5,5.00,000.00,022.5,021.7,000.0,031.0,024.2,23.8,0000.0,0001.54,0004.39,0001.13
2024-02-03 15:46:00,SystemResetWarning,0813.5,5.01,000.00,022.5,021.7,000.0,031.0,024.2,23.8,0000.0,0001.44,0004.18,0001.08
2024-02-03 15:47:00,SystemResetWarning,0813.6,5.00,000.00,022.5,021.7,000.0,031.0,024.2,23.8,0000.0,0001.32,0003.84,0001.03
2024-02-03 15:48:00,SystemResetWarning,0813.6,5.00,000.00,022.5,021.7,000.0,030.9,024.2,23.8,0000.0,0001.22,0003.80,0000.98
2024-02-03 15:49:00,SystemResetWarning,0813.6,4.99,000.00,022.5,021.7,000.0,030.9,024.2,23.8,0000.0,0001.10,0002.89,0000.90
2024-02-03 15:50:00,SystemResetWarning,0813.6,4.99,000.00,022.5,021.7,000.0,030.9,024.2,23.8,0000.0,0000.95,0001.92,0000.84
2024-02-03 15:51:00,SystemResetWarning,0813.5,5.00,000.00,022.5,021.7,000.0,030.9,024.2,23.8,0000.0,0000.89,0001.76,0000.80
2024-02-03 15:52:00,SystemResetWarning,0813.6,5.00,000.00,022.5,021.7,000.0,030.9,024.2,23.9,0000.0,0000.87,0001.69,0000.77
2024-02-03 15:53:00,SystemResetWarning,0813.5,5.00,000.00,022.4,021.7,000.0,030.9,024.2,23.9,0000.0,0000.82,0001.62,0000.74
2024-02-03 15:54:00,SystemResetWarning,0813.5,5.02,000.00,022.4,021.7,000.0,030.9,024.2,23.9,0000.0,0000.80,0001.62,0000.71
2024-02-03 15:55:00,SystemResetWarning,0813.5,5.00,000.00,022.4,021.7,000.0,030.9,024.2,23.9,0000.0,0000.80,0001.63,0000.68
2024-02-03 15:56:00,SystemResetWarning,0813.4,4.99,000.00,022.4,021.7,000.0,030.9,024.2,23.9,0000.0,0000.77,0001.60,0000.66
2024-02-03 15:57:00,SystemResetWarning,0813.5,5.00,000.00,022.4,021.7,000.0,030.9,024.2,24.0,0000.0,0000.77,0001.92,0000.64
2024-02-03 15:58:00,SystemResetWarning,0813.5,5.00,000.00,022.4,021.7,000.0,030.9,024.2,24.0,0000.0,0000.77,0002.34,0000.64
2024-02-03 15:59:00,SystemResetWarning,0813.5,5.02,000.00,022.4,021.7,000.0,030.9,024.2,24.0,0000.0,0000.76,0001.78,0000.63
